Theta_e
311 311 311 310 310 309 307 307 307 307 308 308 308 307 308 308 307 307 307 307 307 307 307 306 306 306 306 306 306 306 306 306 306 306 307 307 307 307 307 307 307 307 306 306 305 305 305 305 304 304 303 303 303 302 302 302 302 302 302 302 301 301 301 300 300 299 299 298 297 297 296 296 295 295 295 294 293 291 290 288 288 287 287 286 286
311 311 311 310 310 309 308 308 307 307 307 308 308 308 308 308 308 308 307 307 307 306 306 306 306 306 306 306 306 306 306 306 306 306 306 307 307 307 307 307 307 307 306 306 305 305 305 305 304 304 303 303 302 302 302 302 301 301 301 301 301 301 300 299 299 299 299 298 297 296 296 295 294 294 294 293 293 292 290 288 287 287 286 286 286
310 311 311 310 310 310 309 308 307 307 307 307 308 308 308 308 307 307 307 307 307 306 306 306 306 306 306 306 306 306 306 306 305 305 306 306 307 307 307 307 307 307 306 306 306 305 305 304 304 304 303 303 302 302 301 301 300 300 300 300 300 300 299 299 298 298 298 298 297 296 296 295 294 293 293 292 291 291 289 288 287 286 286 285 285
310 310 310 310 310 310 310 309 308 308 307 307 307 307 308 308 307 307 307 307 307 306 306 306 306 306 306 306 306 306 306 306 306 305 305 305 306 306 307 307 306 306 306 306 306 305 305 304 304 304 303 303 302 301 301 300 300 300 299 299 299 299 298 298 297 297 297 297 296 296 295 294 293 292 291 291 290 289 288 287 286 285 285 285 284
310 310 310 310 310 310 310 310 309 309 308 308 308 307 307 307 307 307 307 306 307 306 306 306 306 306 306 306 306 306 306 306 306 306 305 305 305 305 305 306 306 306 306 306 306 305 305 304 304 304 303 303 302 301 301 300 300 299 299 298 298 297 297 296 296 296 296 296 295 295 294 293 292 291 291 290 289 288 287 286 285 284 284 284 283
310 309 309 310 310 310 310 310 310 309 309 309 308 308 307 307 307 307 306 306 306 306 306 306 306 306 306 306 305 305 306 306 306 306 305 304 304 304 304 304 305 305 305 305 305 305 304 304 303 303 302 302 302 301 301 300 299 299 298 298 297 296 296 295 295 295 294 294 294 293 293 292 292 291 290 290 289 288 287 285 284 284 283 283 283
310 309 309 310 310 310 310 309 310 309 309 309 309 308 308 308 307 307 307 307 306 306 306 306 305 305 305 305 305 305 305 306 306 306 305 304 304 303 303 303 303 304 304 305 304 304 304 303 303 303 302 302 302 301 301 300 299 299 298 297 296 295 295 294 294 293 293 293 292 292 291 291 291 290 290 289 288 287 286 285 284 283 283 283 282
310 309 309 309 310 310 309 309 309 309 309 309 309 309 309 308 308 308 308 307 307 306 306 306 305 305 305 305 305 305 305 305 306 306 305 305 304 303 303 303 302 303 303 304 304 303 303 302 302 302 301 301 301 300 300 299 298 298 297 297 296 295 294 293 293 292 292 291 291 290 290 289 289 289 288 287 287 287 286 285 283 283 282 282 282
310 309 308 308 308 309 309 309 309 309 309 309 309 309 308 308 308 308 308 307 307 306 306 306 305 305 305 305 305 305 305 305 305 305 305 305 304 303 303 302 302 302 302 303 303 303 303 302 302 301 301 300 300 299 298 298 297 297 296 296 295 294 293 293 292 291 290 290 290 289 289 289 289 288 288 288 288 287 286 284 283 282 281 281 281
310 309 308 307 307 307 308 308 309 309 309 309 309 308 308 308 308 308 307 307 307 307 306 306 306 306 305 305 305 305 305 305 305 305 305 305 304 303 303 302 302 301 301 302 302 302 302 302 301 301 300 299 299 298 298 297 296 296 295 295 294 294 293 292 292 291 290 289 289 289 289 288 288 288 288 288 287 286 284 283 282 281 280 280 280
310 309 307 306 306 306 307 307 308 308 308 308 308 308 308 308 308 308 307 307 307 307 306 306 306 306 306 306 305 305 305 305 305 305 304 304 304 303 303 302 302 301 301 301 301 301 302 301 301 300 299 298 298 297 297 296 295 295 294 294 293 293 292 291 291 290 289 288 288 288 288 288 288 287 287 286 286 285 283 282 281 281 281 280 280
309 308 306 306 306 306 306 306 306 307 307 307 307 307 307 307 307 307 307 307 307 306 306 306 306 306 305 305 305 305 305 305 304 304 304 303 303 303 302 302 302 301 301 300 300 300 300 300 300 299 298 297 297 296 296 295 295 294 294 293 292 292 291 290 289 288 288 287 287 287 287 287 287 286 286 286 285 284 282 281 281 281 281 280 280
308 307 306 306 306 306 306 306 306 306 306 306 306 306 306 306 306 306 305 305 305 305 305 305 305 305 305 305 305 304 304 304 304 304 303 303 302 302 302 301 301 301 300 300 300 300 299 299 299 298 298 296 296 295 294 294 294 293 293 292 291 290 289 288 287 286 286 285 285 285 286 286 285 285 285 285 284 283 282 281 281 280 280 280 280
307 306 306 306 306 306 306 305 305 305 305 305 305 305 305 306 305 305 305 305 305 305 305 304 304 304 304 304 304 304 304 303 303 303 302 302 302 301 301 301 300 300 300 300 299 299 299 298 298 297 297 296 295 294 293 293 293 292 292 291 290 289 288 287 286 285 284 284 284 283 284 284 284 284 283 283 282 282 281 281 281 280 279 279 279
307 306 306 306 305 305 305 305 304 305 305 305 305 305 305 306 306 306 305 305 305 305 305 305 304 304 304 304 304 303 303 303 303 302 302 301 301 300 300 300 299 299 299 298 298 298 298 297 297 296 295 294 293 293 292 292 292 291 290 290 289 288 286 285 285 284 284 283 283 282 282 282 282 282 282 281 281 281 280 280 279 279 279 278 278
306 306 305 305 305 304 304 304 304 305 305 305 305 306 306 306 306 306 305 305 305 305 306 306 305 305 304 304 303 303 303 302 302 301 301 300 300 299 299 299 298 298 298 298 297 297 297 296 295 294 292 291 291 291 290 290 290 289 289 288 287 286 285 285 284 283 283 282 282 281 281 281 281 281 280 280 280 280 279 279 279 279 279 278 278
306 306 306 305 304 304 304 304 304 304 304 305 305 305 306 305 305 305 305 305 305 306 306 306 305 304 304 304 303 303 303 302 301 301 300 299 299 298 298 298 297 297 297 297 296 296 295 294 293 292 290 290 289 289 288 288 288 288 287 287 286 285 285 284 283 282 282 281 281 281 280 280 280 279 279 279 279 279 279 279 279 279 279 278 278
306 306 305 305 304 304 304 304 304 304 304 304 305 305 305 305 304 304 305 305 305 305 305 304 304 304 304 303 303 302 302 301 301 300 299 298 298 297 297 297 296 296 296 295 295 294 293 292 291 290 289 289 288 287 287 287 287 286 286 286 285 285 284 284 283 282 282 281 280 280 279 279 279 279 279 279 279 279 279 279 279 279 279 278 278
305 305 305 305 304 304 304 303 303 303 304 304 304 304 304 304 304 304 304 304 304 304 304 303 303 303 303 303 302 301 301 301 300 299 299 298 297 296 296 295 295 295 294 294 294 293 292 291 290 289 288 288 287 286 286 286 286 286 286 285 285 284 284 284 283 282 282 281 280 280 279 279 279 279 279 279 279 280 280 279 279 279 279 278 278
305 305 305 304 304 304 303 303 303 303 303 304 304 304 304 304 304 304 304 304 303 303 303 303 303 302 302 302 301 301 300 299 299 298 298 297 296 296 295 294 294 294 293 293 293 292 292 291 290 289 288 287 286 286 286 286 286 285 285 285 284 284 284 283 282 282 282 281 280 280 279 279 279 279 280 280 280 281 280 279 278 278 278 278 278
305 305 305 304 304 303 303 302 302 302 303 303 304 304 304 304 304 304 303 303 303 303 302 302 302 302 302 301 300 300 299 298 298 297 296 296 295 295 294 294 294 293 293 292 292 291 291 290 290 289 288 287 287 286 286 285 285 285 284 284 284 283 282 282 281 281 280 280 280 280 279 279 279 279 280 280 280 280 279 278 277 277 277 277 277
304 304 304 303 303 302 302 302 302 302 302 303 303 303 303 303 303 302 302 302 302 302 302 301 301 301 301 300 300 299 298 297 297 296 295 294 294 293 293 292 292 292 291 291 291 290 290 290 289 288 288 287 286 286 285 284 284 284 283 283 282 281 281 280 280 280 279 279 279 279 279 279 279 279 279 279 278 278 277 277 277 277 277 276 276
304 303 302 302 302 301 301 301 301 301 302 302 302 302 302 301 301 301 301 301 301 301 300 300 300 300 300 299 299 298 297 296 296 295 294 293 292 292 291 291 290 290 289 289 289 289 289 288 288 287 287 286 286 285 284 283 283 283 282 281 280 280 280 279 278 278 279 279 279 279 278 278 279 279 279 278 277 277 276 276 276 276 275 275 274
302 301 301 301 301 300 301 301 300 301 301 300 301 300 300 300 299 299 299 299 299 299 299 298 298 298 298 297 297 296 295 294 294 293 292 292 291 290 290 289 289 288 288 288 288 287 287 287 286 286 286 285 285 284 283 282 281 282 281 280 280 279 279 278 278 278 278 278 278 278 278 279 279 279 278 277 276 276 275 275 275 274 273 273 272
300 300 300 300 300 300 300 300 300 300 299 299 299 299 298 298 298 298 298 298 297 297 297 297 296 296 295 295 295 294 293 293 292 291 291 290 289 289 289 288 288 287 287 287 287 286 286 286 286 285 285 284 284 282 282 281 281 280 280 280 279 279 278 278 278 278 278 278 278 278 278 278 278 277 276 275 274 274 274 273 273 272 272 272 271
300 300 299 299 299 299 299 298 298 298 298 298 298 297 297 297 297 297 297 296 296 296 295 294 294 293 293 293 292 292 291 291 290 290 289 288 288 288 288 287 286 286 286 286 286 285 285 285 285 285 284 283 282 281 281 280 280 280 279 278 278 278 278 278 278 278 277 277 277 278 278 277 275 275 274 273 273 272 272 272 272 271 271 270 270
299 298 298 298 298 297 297 297 297 297 297 297 297 296 296 296 295 295 295 294 294 294 293 292 292 291 291 290 290 290 289 289 288 288 288 287 287 287 286 286 285 285 285 285 285 285 285 285 284 284 283 282 281 280 280 279 279 279 278 278 278 278 278 278 278 277 277 277 277 277 276 275 274 273 273 272 271 271 271 271 271 270 270 270 269
297 296 296 296 296 296 296 296 296 296 296 296 296 295 295 294 294 293 293 292 292 291 291 291 290 289 289 288 288 287 287 287 287 286 286 286 286 285 285 284 284 284 284 284 284 284 284 284 283 282 281 280 279 279 278 278 278 278 278 277 277 277 278 277 277 276 276 277 276 275 274 274 273 272 272 271 271 271 271 271 270 270 270 269 269
295 295 295 295 295 295 295 295 295 295 294 294 294 294 293 293 292 291 291 291 290 289 289 288 288 287 286 286 286 285 285 285 285 285 284 284 284 283 283 283 283 283 284 284 284 283 283 282 281 280 279 279 278 278 278 278 278 278 278 277 277 277 277 277 277 276 276 276 275 274 273 272 272 271 271 271 271 271 270 270 270 269 269 269 269
293 293 294 294 294 294 294 293 293 293 292 292 292 292 291 291 291 290 289 289 288 287 287 286 286 285 285 284 284 284 284 284 283 283 283 283 282 282 282 282 282 282 283 283 283 283 282 281 281 280 279 279 278 278 277 277 277 278 278 277 276 276 276 277 277 276 276 275 274 273 272 271 271 270 270 271 270 270 270 269 269 269 268 268 268
292 292 292 292 292 291 291 291 291 290 290 290 289 289 289 288 288 288 287 286 286 285 285 284 284 284 283 283 283 282 282 282 282 282 282 281 281 281 281 281 281 281 281 282 282 281 281 280 280 280 279 278 278 278 278 277 277 277 277 277 276 275 276 276 276 276 275 274 273 272 271 271 270 270 270 270 270 269 269 268 268 268 267 267 267
290 289 289 289 289 288 288 288 288 287 287 287 286 286 286 285 285 284 284 284 284 283 283 283 282 282 282 282 282 281 281 281 281 280 280 280 280 280 280 280 280 280 280 281 281 281 280 280 279 279 279 278 278 278 277 277 277 277 276 276 276 275 275 275 275 275 275 274 273 272 271 271 271 270 270 269 269 268 268 268 267 267 267 266 266
287 287 286 286 286 285 285 285 284 284 284 283 283 283 283 282 282 282 282 282 281 281 281 281 280 280 280 280 280 280 280 279 279 279 279 279 279 279 279 279 279 280 280 280 280 280 279 279 279 278 278 278 278 277 277 277 277 276 276 276 276 275 275 275 274 274 274 273 273 272 272 271 271 270 269 269 268 268 267 267 267 266 266 266 266
284 284 283 283 283 283 282 282 282 281 281 281 281 281 280 280 280 280 280 280 280 279 279 279 278 278 278 278 277 277 278 278 278 277 278 278 278 278 278 278 279 279 279 279 279 279 279 278 278 278 278 278 277 277 277 276 276 276 275 275 275 275 275 274 273 273 273 272 272 272 271 271 270 269 269 268 268 267 267 266 266 266 265 265 265
281 281 281 281 280 280 280 280 280 280 279 279 279 279 279 279 279 278 278 278 278 278 278 277 277 277 276 277 276 276 276 276 276 276 276 276 276 277 277 277 277 278 279 279 278 278 278 278 278 278 277 277 277 276 276 276 276 275 275 275 275 274 274 274 273 272 272 272 271 271 271 270 270 269 269 268 268 267 267 266 266 265 265 265 265
279 279 279 279 279 279 279 278 278 278 278 278 278 278 278 278 278 278 277 277 277 277 277 277 277 276 276 276 276 275 275 275 275 275 275 275 275 276 276 276 277 277 277 278 278 277 277 277 277 277 277 277 276 276 276 275 275 275 275 274 274 274 274 273 273 272 271 271 271 271 270 270 269 269 268 268 267 267 266 266 265 265 265 265 264
278 278 278 278 278 278 278 278 278 277 277 277 277 277 277 277 277 277 277 277 276 276 276 276 276 276 276 275 275 275 275 274 274 274 274 275 275 275 275 275 276 276 276 277 277 277 277 277 276 276 276 276 276 276 275 275 275 274 274 274 274 274 273 273 272 272 271 271 271 271 270 269 269 268 268 267 267 266 266 265 265 265 265 264 264
277 277 277 277 277 277 277 277 277 277 277 277 277 277 277 276 276 276 276 276 276 275 275 275 275 275 275 275 274 274 274 274 273 273 274 274 274 274 274 275 275 275 275 276 276 276 276 276 276 276 276 276 275 275 275 274 274 274 274 273 273 273 272 272 271 271 271 271 270 270 269 269 268 268 267 267 266 266 265 265 265 264 264 264 263
276 276 276 276 276 276 276 276 276 276 276 276 276 276 276 276 276 275 275 275 275 275 274 274 274 274 274 274 274 273 273 273 273 272 272 272 272 273 273 274 274 274 274 274 275 275 275 275 275 275 275 275 275 274 274 274 274 273 273 273 272 272 271 271 271 270 270 270 270 269 269 268 268 268 267 266 266 265 265 265 264 264 264 263 263
276 275 275 275 275 275 275 275 275 275 275 275 275 275 275 275 275 275 275 274 274 274 274 274 274 274 273 273 273 273 273 272 272 271 271 271 271 271 272 272 273 273 273 273 273 274 274 274 274 274 274 274 274 273 273 273 273 273 272 272 272 271 271 271 271 270 270 270 270 269 269 268 268 267 266 266 265 265 265 264 264 264 263 263 263
275 275 275 275 275 275 275 274 274 274 274 274 274 274 274 274 274 274 274 274 274 274 274 273 273 273 273 273 272 272 272 272 272 271 271 271 270 270 271 271 272 272 273 273 273 273 273 273 273 273 273 273 273 273 272 272 272 272 272 272 271 271 271 270 270 270 270 269 269 269 268 268 267 267 266 266 265 265 264 264 263 263 263 263 262
274 274 274 274 274 274 274 274 274 274 274 273 273 273 273 273 273 273 273 273 272 272 272 272 272 272 272 272 272 272 272 271 271 271 271 270 270 270 270 270 270 271 271 272 272 272 272 272 272 272 272 272 272 272 272 272 271 271 271 271 271 270 270 270 270 269 269 269 268 268 267 267 267 266 266 265 265 264 264 263 263 263 263 262 262
273 273 273 273 273 273 273 273 273 273 273 273 272 272 272 272 272 272 272 272 271 271 271 271 271 271 271 271 270 270 270 270 270 270 270 270 270 270 269 269 269 270 270 270 271 271 271 271 271 271 271 271 271 271 271 271 271 271 270 270 270 270 269 269 269 269 268 268 267 267 267 266 266 265 265 265 264 264 263 263 263 263 262 262 262
271 271 271 271 271 271 271 271 271 271 271 271 271 271 271 271 271 271 271 270 270 270 270 270 270 270 270 269 269 269 269 269 269 269 269 269 269 269 269 269 269 269 269 269 269 269 269 270 270 270 270 270 269 269 269 269 269 269 269 269 269 268 268 268 268 268 267 267 266 266 266 266 265 265 264 264 264 263 263 263 263 262 262 262 262
270 270 270 270 270 269 269 269 269 269 269 269 269 269 269 269 269 269 269 269 269 269 269 268 268 268 268 268 268 268 268 268 268 268 268 268 268 268 268 268 268 268 268 268 268 268 268 268 268 268 268 268 268 268 268 268 268 268 267 268 267 267 267 267 267 266 266 266 266 266 265 265 265 264 264 264 263 263 263 263 262 262 262 262 261
269 269 269 269 269 269 268 268 268 268 268 268 268 268 267 267 267 267 267 267 267 267 267 267 267 267 267 267 266 266 266 266 266 266 266 266 267 267 267 267 267 267 267 267 267 267 267 267 267 267 267 267 267 267 267 267 267 267 267 267 267 267 267 266 266 266 266 265 265 265 265 264 264 264 264 263 263 263 263 262 262 262 262 261 261
268 268 268 268 267 267 267 267 267 267 266 266 266 266 266 266 266 265 265 265 265 265 265 265 265 265 265 265 265 265 265 265 265 265 265 265 265 265 265 266 266 266 266 266 266 266 266 266 266 266 266 266 266 266 266 266 266 266 266 266 266 266 266 266 266 266 265 265 265 264 264 264 264 263 263 263 263 262 262 262 262 261 261 261 261
267 266 266 266 266 266 265 265 265 265 265 265 265 265 264 264 264 264 264 264 264 264 264 264 264 264 264 264 264 264 264 264 264 264 264 264 264 264 265 265 265 265 265 265 265 265 265 265 265 265 265 265 265 265 265 266 265 266 266 266 266 266 265 265 265 265 265 264 264 264 264 263 263 263 263 262 262 262 262 261 261 261 261 261 260
265 265 265 265 265 264 264 264 264 264 264 263 263 263 263 263 263 263 263 263 263 263 263 263 263 263 263 263 263 263 263 263 263 263 263 263 263 263 263 263 264 264 264 264 264 264 264 264 264 264 264 264 264 264 265 265 265 265 265 265 265 265 265 265 264 264 264 264 263 263 263 263 263 262 262 262 262 261 261 261 261 261 260 260 260
264 264 264 264 264 263 263 263 263 263 263 262 262 262 262 262 262 262 262 262 262 262 262 262 262 262 262 262 262 262 262 262 262 262 262 262 262 262 262 262 262 263 263 263 263 263 263 263 263 263 263 263 263 264 264 264 264 264 264 264 264 264 264 264 264 264 263 263 263 263 262 262 262 262 262 261 261 261 261 261 261 260 260 260 260
263 263 263 263 263 263 262 262 262 262 262 262 261 261 261 261 261 261 261 261 261 261 261 261 261 261 261 261 261 261 261 261 261 261 261 261 261 261 261 261 261 261 261 262 262 262 262 262 263 263 263 263 263 263 263 263 264 264 263 263 263 263 263 263 263 263 263 262 262 262 262 262 262 261 261 261 261 261 261 260 260 260 260 260 260
Wind_Speed
26 28 29 30 32 34 34 34 34 34 34 35 35 34 32 31 30 30 31 31 31 31 31 30 29 29 30 31 32 34 35 35 35 35 35 35 35 35 35 34 34 33 33 33 32 32 32 31 30 29 29 28 28 28 28 29 28 28 28 27 27 27 27 27 27 26 26 25 24 24 25 25 25 26 25 25 24 23 22 22 21 21 21 21 20
26 27 28 30 32 32 32 33 34 35 35 36 36 35 34 32 31 32 33 34 33 33 33 32 31 31 31 32 32 33 34 36 36 37 37 37 37 37 38 37 36 36 36 35 34 34 34 33 33 32 32 31 31 30 30 30 30 30 30 30 29 29 29 29 29 29 29 28 27 26 27 27 27 27 26 26 25 24 23 22 22 21 21 20 20
24 27 28 30 30 30 31 33 34 35 36 37 37 36 34 34 34 35 35 35 35 35 35 34 34 34 34 34 34 33 34 36 37 39 39 40 40 40 40 40 39 39 38 37 37 36 36 36 35 35 35 34 33 33 32 31 31 31 31 31 31 31 31 31 31 31 31 30 29 28 29 29 28 28 27 26 26 26 25 24 23 22 22 21 20
22 26 28 29 30 30 31 32 34 35 37 37 37 37 36 36 36 37 37 37 37 37 36 36 37 37 36 36 35 35 35 36 38 40 41 41 42 42 42 41 41 41 40 39 39 38 38 38 38 37 37 36 35 35 34 33 33 33 32 33 32 32 32 33 33 33 33 32 31 30 30 30 29 28 28 28 27 27 26 25 25 24 23 22 21
21 24 27 29 31 32 32 33 34 36 37 37 38 37 37 37 38 38 39 38 38 38 38 38 39 39 38 38 37 37 37 37 38 39 41 42 43 43 43 43 43 42 42 42 41 40 40 40 39 39 38 38 38 37 36 35 35 34 34 34 34 34 34 34 35 35 35 35 34 33 32 32 31 30 30 29 29 28 27 27 26 25 24 23 23
21 24 27 29 31 33 34 34 35 36 36 36 36 36 37 37 38 39 39 39 39 39 40 40 40 40 40 40 39 39 39 38 38 39 40 42 43 44 44 44 44 44 44 44 43 42 42 41 41 40 40 40 39 38 38 37 37 36 36 35 35 35 36 36 36 37 37 37 37 36 35 35 34 33 32 31 31 30 29 28 28 28 27 26 25
22 24 27 29 30 32 33 34 34 34 34 34 34 34 35 36 37 38 38 39 40 41 41 41 41 41 41 41 41 40 40 40 39 39 40 42 43 44 45 45 45 45 46 46 45 44 44 43 42 42 42 41 40 39 39 38 38 37 37 36 36 36 37 38 38 38 39 39 39 38 37 36 36 35 34 33 32 32 32 31 31 30 29 28 27
24 25 27 29 29 29 29 29 30 31 32 33 33 34 34 35 36 36 37 39 40 41 41 41 41 41 41 42 42 41 41 41 40 40 40 41 43 44 45 46 46 47 47 47 46 46 45 45 44 44 43 43 42 41 40 39 38 38 37 37 37 37 38 38 39 39 40 40 40 39 38 37 37 36 36 36 36 36 36 34 32 31 29 28 28
25 24 26 27 28 28 27 26 27 28 29 31 32 33 33 34 35 35 37 38 39 39 40 40 41 42 42 42 42 42 43 42 41 41 40 41 42 44 45 46 47 47 48 48 47 47 47 46 46 46 45 44 43 42 41 40 39 39 38 38 38 38 38 39 39 39 40 40 40 40 39 39 40 40 40 40 39 38 36 34 31 30 28 27 26
26 25 25 25 25 26 26 26 26 27 28 29 30 31 31 32 33 34 35 36 37 37 38 39 40 41 42 42 43 43 43 43 42 41 40 40 41 42 44 46 47 48 48 49 49 48 48 48 48 47 47 46 45 44 43 42 41 40 40 39 39 39 39 39 40 40 40 41 41 42 42 42 42 42 41 40 38 36 35 33 31 30 28 27 26
26 26 25 23 23 25 25 25 24 25 25 26 27 27 28 29 30 32 33 34 35 35 36 38 39 40 40 41 41 42 43 42 41 40 40 40 40 42 43 45 46 48 48 49 49 49 49 49 49 49 49 48 47 46 45 44 43 42 42 41 41 41 40 40 41 41 41 41 41 42 42 42 42 41 40 39 37 35 34 33 32 31 30 29 28
24 25 24 22 21 22 22 21 21 21 22 22 23 24 25 26 27 29 31 31 33 34 35 36 37 37 38 40 41 41 42 41 40 39 40 40 40 41 43 44 46 47 48 48 48 49 49 50 50 50 50 49 48 48 47 47 46 45 44 43 43 43 43 42 41 41 41 41 41 42 42 42 41 41 40 39 37 35 35 33 32 31 30 29 28
22 23 21 19 18 17 17 17 17 17 18 18 19 20 22 23 24 25 27 28 30 31 32 34 35 36 37 38 39 40 40 39 39 39 40 40 40 41 43 44 46 47 48 48 48 49 49 50 50 51 51 50 50 49 49 48 47 46 45 45 45 44 44 43 42 41 39 38 39 40 41 40 40 39 38 37 36 35 35 34 32 31 29 28 28
21 21 18 16 15 14 14 14 14 15 16 17 17 19 20 21 22 23 24 26 28 29 30 31 32 33 35 36 37 38 38 38 38 39 39 39 40 41 42 44 46 47 48 48 48 48 49 49 50 51 51 51 50 50 49 48 48 47 47 47 47 46 45 44 43 41 39 38 37 37 37 37 36 35 34 33 33 33 32 32 32 30 29 28 28
21 20 17 15 14 13 13 14 14 15 16 17 18 19 20 22 23 24 25 27 27 28 29 30 31 32 33 34 36 37 37 37 37 37 38 38 39 40 42 44 46 47 48 48 48 48 49 49 50 50 50 50 50 49 49 48 48 48 48 48 47 46 45 45 43 41 40 38 37 35 34 33 32 32 31 31 31 31 30 30 30 29 28 27 27
22 21 19 17 16 16 15 15 15 16 18 19 20 21 22 23 24 25 26 27 28 28 29 30 31 32 33 34 35 36 36 36 36 37 37 37 38 39 42 44 46 47 48 49 48 48 48 48 49 49 49 49 48 48 47 47 47 47 47 47 46 45 45 45 43 41 39 38 37 35 33 31 30 30 30 29 30 30 30 30 29 29 28 28 28
23 22 21 19 19 18 18 18 18 19 20 21 22 22 23 24 25 25 27 28 28 29 30 31 32 32 33 34 35 36 36 36 36 36 35 36 36 38 41 43 45 47 48 48 48 47 47 47 48 48 48 48 47 46 46 46 46 46 46 45 45 45 44 44 42 39 38 37 36 35 33 32 31 30 29 29 29 30 31 30 30 30 30 29 29
24 25 24 22 21 20 19 19 20 20 22 23 23 23 24 24 25 25 27 28 29 30 31 31 32 33 34 35 35 36 36 35 35 35 35 35 35 37 39 42 44 46 47 47 47 47 46 47 47 47 47 47 46 45 46 46 45 45 45 45 44 44 44 43 41 39 38 38 37 35 34 33 32 31 30 30 31 32 32 31 31 32 31 30 29
27 28 27 24 22 21 20 21 22 22 23 24 24 25 25 25 25 26 27 29 30 31 31 32 33 34 34 35 35 35 35 35 35 35 35 35 35 36 37 40 43 45 45 46 46 46 46 46 46 46 46 45 44 44 45 45 45 45 45 44 44 44 44 43 41 40 40 39 38 38 37 36 35 34 33 33 34 34 33 32 33 33 32 30 29
28 28 27 25 24 23 23 24 24 24 25 25 26 27 26 26 27 28 29 30 30 31 32 33 34 34 34 35 35 35 36 35 35 36 36 35 35 35 36 39 42 43 44 44 45 45 46 46 46 45 45 44 44 44 45 46 46 45 45 45 45 43 42 41 40 40 40 39 39 39 39 38 37 36 36 35 36 35 34 32 32 32 31 29 29
27 27 27 26 25 25 25 25 25 26 27 27 28 29 29 29 29 30 30 31 31 32 33 34 35 35 35 36 36 36 36 36 36 36 35 35 35 34 36 39 41 42 42 43 44 45 45 45 45 44 44 44 43 43 44 46 46 45 45 44 42 39 39 38 38 38 38 37 38 38 38 38 37 36 35 35 34 34 33 32 31 30 30 29 27
26 26 26 26 26 26 26 26 26 27 28 29 30 30 30 30 30 30 30 31 32 33 34 34 35 36 36 37 37 37 37 36 36 36 35 35 34 34 36 38 39 40 42 43 44 44 44 43 43 43 42 42 42 42 42 44 45 45 43 41 38 36 36 36 36 37 37 37 37 37 36 36 35 35 35 34 34 33 32 31 29 29 29 28 27
26 26 26 26 26 26 26 26 27 28 28 29 31 31 31 30 30 30 30 31 32 33 34 34 35 36 37 37 37 37 36 36 36 35 35 35 34 34 34 36 38 39 41 43 43 43 43 42 41 40 40 40 40 40 40 41 43 44 41 38 37 36 36 36 36 36 36 36 36 36 36 36 35 34 34 33 32 31 30 29 29 29 29 28 26
26 26 26 26 26 26 26 27 27 28 29 30 31 30 30 29 29 28 29 30 31 32 32 33 33 35 35 35 35 35 35 35 35 35 34 34 33 33 33 35 37 39 40 41 41 41 41 40 39 38 38 38 38 39 38 38 40 42 41 37 36 37 38 38 37 36 35 36 37 37 37 36 35 34 33 32 30 29 29 29 29 29 27 25 23
25 25 25 26 26 27 27 27 28 29 29 29 29 29 28 28 27 28 28 29 30 30 31 31 32 33 34 34 34 34 34 34 34 34 33 32 32 32 31 32 36 39 40 40 40 40 39 37 36 35 35 36 36 36 35 34 35 39 39 36 35 37 39 39 37 37 38 38 38 38 38 37 35 33 31 29 28 28 28 28 27 26 24 23 23
25 26 26 26 27 27 27 27 28 28 27 28 27 27 27 27 27 28 28 28 29 29 30 30 30 31 32 32 32 32 32 33 32 32 31 30 30 30 29 29 33 37 39 39 39 39 37 35 34 33 33 34 35 35 35 33 33 36 37 36 36 37 38 38 38 39 40 40 39 39 37 35 32 30 29 28 27 27 27 25 24 23 23 23 23
25 26 26 26 26 26 26 26 26 25 26 26 26 26 27 27 27 27 27 28 28 28 28 28 29 30 30 30 31 31 31 32 31 30 29 28 28 28 27 27 30 36 39 38 38 38 35 34 33 32 32 33 33 34 34 32 33 36 38 38 38 37 35 35 37 39 39 39 38 36 34 32 30 30 29 27 26 26 25 24 23 23 23 23 23
24 24 24 24 24 24 24 25 24 25 25 25 25 25 25 25 26 25 26 26 27 27 27 27 27 28 28 28 28 29 30 31 30 28 26 25 25 24 24 25 28 35 40 40 38 36 33 32 32 31 32 32 32 32 32 31 33 37 40 40 40 37 34 34 36 37 37 36 35 33 31 31 30 30 28 27 26 24 24 23 23 23 23 24 25
22 23 23 23 23 24 24 25 24 24 25 25 25 25 25 24 24 24 25 26 26 26 26 26 26 25 26 26 27 28 29 28 27 25 23 22 22 21 21 22 25 32 39 41 38 35 33 32 32 32 33 33 33 33 34 34 35 37 39 40 40 38 36 36 37 36 35 33 32 31 31 31 30 29 27 26 24 24 24 24 23 23 24 25 26
21 22 22 23 23 23 24 24 24 24 24 23 24 24 25 25 24 24 24 24 24 24 24 25 24 23 23 24 24 25 26 26 24 23 22 21 20 19 19 20 22 28 34 38 38 37 35 33 33 33 34 34 34 35 35 37 38 38 38 39 39 39 39 38 37 36 34 32 30 30 30 30 29 26 24 23 22 23 24 23 23 24 25 25 25
20 21 21 22 22 22 22 22 22 22 22 22 22 23 23 23 23 22 22 21 21 21 21 22 22 22 21 21 21 21 22 22 21 21 20 19 19 18 18 18 21 25 31 35 38 37 35 34 34 34 34 34 34 35 36 38 40 41 41 40 40 40 40 39 38 37 35 32 30 30 29 28 25 22 20 19 20 22 23 23 24 24 25 25 25
19 19 19 20 20 20 20 19 19 19 19 18 18 18 18 18 18 17 17 17 17 17 17 18 18 18 18 18 18 17 17 17 18 17 17 17 17 16 15 16 20 24 28 33 38 39 37 35 34 34 34 34 34 34 36 38 40 42 43 43 43 42 41 40 39 38 36 34 32 29 27 25 22 20 18 18 20 21 23 24 24 24 24 25 25
17 16 16 16 15 15 15 14 14 13 13 13 13 13 13 13 13 13 13 13 13 13 13 14 14 14 14 15 15 14 13 13 14 14 14 14 15 14 14 15 19 24 27 31 36 38 37 36 35 34 33 34 33 34 35 37 39 42 44 44 44 43 42 41 39 38 37 34 31 28 25 24 22 21 20 19 20 22 23 24 24 24 25 26 26
12 11 11 11 10 10 10 9 9 9 8 9 9 9 9 10 11 11 11 11 11 11 10 10 11 12 11 11 12 12 11 10 10 11 11 12 12 12 12 13 17 22 27 31 34 36 36 36 35 34 33 33 33 33 34 35 37 40 43 44 44 43 43 42 40 38 36 34 30 27 26 24 24 23 22 22 22 23 24 25 25 25 26 26 25
7 7 7 7 7 7 6 6 7 7 7 7 7 8 8 9 9 10 10 11 11 10 9 9 9 10 10 9 9 10 10 9 9 9 9 10 10 10 12 15 18 21 25 29 33 35 36 36 35 34 33 33 32 33 34 35 36 38 41 43 43 44 43 43 41 39 37 34 31 28 26 25 25 25 24 24 24 25 26 26 26 26 26 25 25
5 5 5 5 5 6 6 6 7 7 7 7 8 8 9 9 10 10 10 11 11 11 11 10 10 10 10 10 9 9 9 8 9 9 9 8 9 11 14 17 19 21 24 27 30 32 33 34 34 33 32 32 33 33 33 34 35 36 39 41 42 43 43 43 42 40 37 34 32 29 27 27 26 26 26 26 26 27 28 27 27 26 26 26 26
6 6 6 7 7 7 7 8 8 8 8 9 9 9 10 10 11 11 11 12 12 12 12 12 11 11 10 10 10 10 8 7 8 10 9 8 9 12 16 19 20 22 24 27 29 31 31 32 32 32 31 32 33 33 33 33 34 35 37 39 40 41 41 40 39 38 36 34 32 30 29 28 28 28 28 28 28 29 28 27 27 26 26 26 26
9 9 9 9 9 9 9 9 10 10 10 11 11 11 11 11 11 12 12 12 12 12 12 12 12 12 11 10 10 10 10 9 9 9 10 9 9 12 16 19 21 23 24 26 28 30 31 31 31 31 31 32 33 33 32 32 33 34 35 36 37 38 37 36 35 35 34 33 32 31 29 29 29 29 29 29 29 29 28 27 27 27 26 27 27
9 10 10 10 11 11 11 11 11 12 12 12 12 12 13 13 13 13 13 13 13 13 13 13 13 13 13 12 11 12 12 11 10 10 11 11 11 12 14 18 21 23 24 26 28 29 30 31 31 30 30 31 32 33 32 32 32 32 32 32 32 32 33 33 33 33 33 33 32 31 30 30 30 30 30 30 30 29 28 27 27 27 27 27 27
10 11 11 11 12 12 12 13 13 13 13 14 14 14 15 15 15 15 16 16 16 16 16 16 15 15 15 15 14 14 14 13 12 12 13 13 14 14 14 17 20 23 24 26 27 28 30 31 32 31 31 31 31 31 31 32 31 30 29 28 27 28 29 31 32 32 33 32 32 32 31 31 31 31 31 31 30 29 28 27 27 27 27 27 27
11 12 12 13 13 14 14 15 15 16 16 16 17 17 17 17 18 18 18 18 18 18 18 18 18 17 18 18 17 16 17 16 15 14 15 15 16 16 16 17 20 23 25 27 27 28 29 30 31 32 32 32 32 31 29 29 29 29 28 27 26 27 28 30 31 32 32 32 32 31 31 31 31 31 31 30 29 28 28 28 28 28 27 27 27
13 13 14 15 15 16 16 17 17 18 18 19 19 20 20 20 20 21 21 21 21 21 21 21 20 20 20 20 20 19 20 19 19 18 17 17 17 18 19 19 20 22 25 27 28 28 29 29 29 30 30 31 32 31 29 28 28 28 28 28 29 29 30 31 31 32 32 32 31 31 31 31 31 31 30 29 28 28 28 28 28 28 27 27 26
14 15 16 16 17 17 18 19 19 19 20 20 21 21 22 22 22 23 23 23 23 23 24 24 23 23 22 22 22 22 22 21 21 21 20 20 20 20 21 21 22 23 25 26 27 27 28 28 28 28 28 28 28 28 28 27 27 26 27 28 29 29 30 30 31 32 31 31 31 32 32 32 31 30 29 29 28 28 29 29 28 28 27 26 26
15 16 16 17 17 18 18 19 20 20 21 21 21 22 22 23 23 24 24 24 24 24 25 25 25 25 25 23 23 23 23 23 23 23 22 22 22 22 22 23 24 25 27 27 27 27 27 27 27 27 26 26 26 26 25 25 25 25 25 26 27 28 29 29 30 30 30 31 31 32 31 31 30 29 29 28 28 29 29 28 28 27 26 26 25
17 17 18 18 19 19 19 20 21 22 22 22 23 23 23 23 24 25 25 25 25 25 25 25 25 26 26 25 24 24 24 24 24 24 23 23 23 23 22 23 24 25 27 28 29 29 29 29 29 28 28 27 27 27 26 26 26 26 26 27 27 29 29 28 28 28 28 29 29 29 29 28 28 28 28 28 28 28 28 27 26 26 25 25 24
19 20 20 21 21 21 21 22 22 23 23 24 24 25 24 24 25 25 25 26 26 26 26 26 26 26 26 26 26 25 25 25 25 24 24 24 24 24 23 23 23 24 25 26 28 29 30 31 32 32 32 31 31 30 30 30 30 30 30 30 30 30 29 27 27 26 27 27 27 27 27 27 27 27 27 27 27 27 27 26 26 25 24 23 23
22 22 23 23 23 23 24 24 24 24 24 24 25 26 25 25 25 25 25 26 26 26 27 27 26 27 27 27 27 27 26 26 26 26 26 25 25 25 25 25 25 25 25 25 26 27 28 29 30 31 32 33 33 33 33 33 32 32 32 31 31 30 28 27 26 26 26 27 27 26 27 26 26 26 27 27 27 27 26 26 25 24 23 23 23
24 24 24 25 25 25 25 25 25 26 26 25 26 26 26 26 26 26 26 26 26 26 26 27 27 27 27 27 27 27 27 27 27 27 27 27 26 26 26 26 26 26 25 25 26 26 27 28 28 28 29 30 31 32 32 32 31 31 30 30 29 29 27 26 26 26 26 26 26 26 26 26 26 26 26 26 26 26 25 24 23 22 22 23 23
25 26 26 26 26 26 26 27 27 27 27 27 27 27 27 27 27 27 27 27 27 26 27 27 27 27 27 27 27 27 27 27 27 27 27 26 26 26 26 26 26 26 26 26 26 26 26 27 27 27 27 28 28 29 29 29 29 29 28 28 28 27 26 26 26 25 25 25 25 25 25 25 25 26 25 25 25 24 23 22 22 22 22 23 23
26 26 26 27 27 27 27 27 27 27 27 27 28 28 28 28 28 28 27 27 27 27 27 26 27 27 27 27 27 27 27 27 28 27 27 27 26 25 26 26 25 26 26 26 26 26 26 27 27 27 27 27 27 27 28 27 27 27 27 27 27 27 26 26 26 25 25 25 24 24 24 25 25 24 24 24 23 23 22 22 22 22 22 23 22
27 27 27 27 27 27 27 27 27 27 27 27 28 28 28 29 29 28 27 27 27 27 27 27 27 27 27 27 27 27 27 28 28 28 28 28 27 27 26 26 25 25 25 25 26 26 26 27 27 27 27 27 27 27 27 27 26 26 26 26 26 27 27 26 26 25 24 24 24 24 24 24 24 24 23 23 23 22 22 22 22 22 22 22 21
Wind_Direction
246 246 246 246 247 247 248 248 249 250 251 251 251 252 251 251 252 251 251 251 251 253 254 256 258 259 260 259 258 257 256 255 255 255 254 255 255 254 254 253 252 253 252 252 251 250 249 248 247 246 244 242 240 238 237 235 233 232 233 234 233 233 233 233 235 237 237 235 233 234 234 232 230 230 231 233 234 235 234 233 234 235 238 240 242
250 247 246 246 246 246 246 247 248 249 250 250 251 251 251 251 251 250 250 250 251 253 255 257 259 260 262 263 262 261 259 257 257 256 255 255 255 255 254 254 253 253 252 252 252 251 250 249 248 246 245 243 242 240 238 236 235 233 233 233 232 232 233 234 235 238 239 238 235 234 235 234 233 232 232 232 235 236 237 237 237 238 240 242 245
256 250 247 246 247 247 246 246 247 248 249 250 251 251 251 252 252 252 252 253 254 255 257 258 260 262 263 264 265 264 262 259 257 256 255 255 254 254 254 254 254 254 254 254 253 252 251 250 248 247 246 244 243 241 239 237 236 235 234 235 234 233 233 234 236 239 241 242 240 240 240 238 235 234 233 231 232 234 235 236 237 239 241 243 246
261 254 249 247 246 246 246 246 246 247 247 248 249 250 251 252 252 253 254 255 256 257 259 260 261 262 264 264 266 266 265 262 259 256 255 255 255 255 255 255 255 255 255 255 255 254 253 252 251 249 248 246 245 243 241 239 237 236 235 235 235 234 234 235 237 239 241 243 243 243 244 243 240 237 235 233 231 231 232 234 235 236 238 239 241
263 259 253 248 245 243 243 244 244 245 246 248 249 250 251 252 253 255 256 257 258 260 261 262 263 264 265 267 268 269 269 268 265 262 259 257 257 257 256 256 256 256 256 255 255 255 254 254 254 252 251 249 248 246 244 242 240 238 236 235 234 234 234 235 236 238 240 242 244 243 243 242 240 238 236 234 232 230 229 229 231 231 232 232 234
262 261 255 251 248 244 243 243 244 246 247 249 251 253 254 255 256 257 259 260 261 262 263 264 265 266 267 269 271 271 272 272 271 268 265 262 260 259 258 258 257 257 256 256 255 255 255 255 255 254 253 252 251 249 248 246 244 241 239 237 235 234 234 234 236 237 239 240 242 243 242 240 239 238 237 235 233 232 230 228 227 227 227 227 228
265 262 257 253 251 250 248 248 248 250 252 254 256 257 258 259 259 260 261 262 262 262 264 265 266 268 269 271 272 273 273 272 272 270 267 264 262 260 260 259 258 258 257 257 256 255 255 255 255 255 254 254 253 252 250 249 247 246 244 241 239 236 235 235 236 236 237 239 240 240 241 240 239 239 238 235 232 230 229 228 226 224 224 224 225
269 268 261 257 256 256 255 255 255 255 256 257 257 257 258 258 259 260 260 261 261 262 264 266 267 268 269 269 270 271 271 270 269 269 267 266 264 262 261 260 260 259 258 257 257 256 256 255 255 255 255 255 254 253 252 251 250 249 247 245 243 240 238 237 237 237 237 238 239 239 239 238 237 236 234 232 230 230 229 227 226 226 226 225 225
270 271 266 262 261 261 259 258 257 255 254 254 253 254 255 255 257 258 258 259 260 262 263 265 266 266 267 267 268 268 268 268 267 267 267 267 265 264 263 262 261 260 260 259 258 257 257 256 256 256 255 255 254 253 252 251 251 250 250 249 247 245 243 241 240 239 237 237 237 236 236 236 236 235 234 234 234 234 232 229 226 226 225 225 226
269 272 270 266 263 261 259 256 255 253 252 252 253 253 254 255 256 257 258 259 261 262 263 264 264 265 266 267 267 268 268 268 268 268 268 268 267 266 264 263 262 261 261 260 259 258 257 257 256 256 255 254 254 253 252 251 250 250 250 250 249 249 247 246 245 243 241 239 238 237 236 236 237 238 238 238 237 234 232 229 226 224 223 224 226
268 273 275 271 263 257 256 255 254 254 254 254 255 255 256 257 258 259 260 261 262 263 264 264 265 266 268 268 269 269 269 269 270 270 269 269 268 266 265 264 263 262 261 260 260 259 258 258 257 256 255 254 254 253 253 251 250 249 249 248 248 248 248 248 248 246 244 242 240 240 239 239 239 239 237 237 235 233 230 228 226 225 225 227 228
267 274 274 270 262 256 256 257 256 256 257 258 258 259 260 261 262 263 263 264 265 266 266 267 268 269 270 270 270 270 270 271 271 270 270 269 268 267 266 265 264 263 262 262 261 260 259 258 257 257 256 255 254 254 253 252 251 250 249 248 247 247 247 247 247 246 245 244 242 242 241 240 239 238 237 236 234 231 228 226 226 227 228 230 232
263 268 267 262 257 256 257 258 260 263 264 265 266 267 267 268 269 270 269 269 268 268 269 269 269 270 270 270 271 272 272 272 272 271 271 270 269 268 267 266 265 264 264 263 262 261 260 259 258 257 256 255 254 253 252 252 251 250 249 248 246 246 245 245 245 245 245 246 246 245 245 243 241 240 239 236 233 229 227 226 227 227 227 229 232
258 259 254 250 251 254 259 263 269 272 273 273 273 273 274 276 276 276 275 273 272 272 272 272 271 271 271 272 273 273 273 273 273 273 272 271 271 270 269 268 267 266 265 264 263 262 262 261 259 259 258 256 255 253 252 251 251 250 249 247 246 245 244 243 242 242 241 242 244 245 247 246 244 242 239 235 232 231 230 229 228 227 226 228 232
254 247 239 240 247 253 258 262 264 267 268 268 269 271 273 274 275 276 276 276 276 276 275 275 274 273 273 273 274 274 274 274 274 273 273 272 271 270 269 268 267 266 266 265 264 263 263 262 261 260 259 258 256 255 254 253 251 250 248 246 245 244 243 242 241 240 240 240 240 241 243 243 241 239 237 233 230 229 229 229 228 227 227 229 233
247 236 232 238 245 248 250 252 254 257 259 260 261 264 266 268 270 273 274 275 276 275 275 275 275 276 276 276 277 277 277 276 275 274 273 272 271 270 269 268 268 267 266 265 265 265 264 263 262 260 259 257 256 255 254 252 250 248 247 246 244 243 242 242 241 240 239 239 239 239 239 238 238 236 234 232 230 228 226 226 226 228 229 232 234
244 236 236 240 243 246 249 252 254 255 255 256 256 258 262 265 268 271 273 274 274 274 275 276 276 277 278 277 277 278 278 278 277 277 275 273 271 270 269 269 268 268 267 267 266 266 264 263 260 258 257 256 255 253 252 250 248 247 246 245 244 243 243 242 241 239 238 238 238 237 237 236 234 233 231 230 230 229 229 229 231 233 234 234 235
245 240 241 241 244 249 252 256 259 258 256 256 257 259 263 266 269 270 272 273 273 274 275 275 275 276 276 276 277 278 278 279 278 277 275 273 271 269 269 269 268 268 267 267 266 265 263 261 259 257 256 255 254 253 251 250 248 247 247 246 245 244 244 243 241 239 237 236 235 234 233 233 232 231 230 231 232 233 234 234 236 238 237 236 237
250 246 246 246 249 252 255 258 261 261 259 259 259 262 264 266 267 269 270 271 273 273 274 274 275 275 276 277 278 278 278 278 277 276 275 273 271 269 268 267 266 266 266 266 266 264 262 261 259 257 256 255 253 251 251 251 250 250 249 248 246 245 245 246 244 242 239 237 234 233 232 231 231 231 230 232 234 236 238 238 239 240 239 237 238
258 254 252 252 251 251 253 256 260 261 261 260 261 262 264 265 266 267 269 271 272 273 275 275 276 278 279 279 279 279 279 279 277 276 275 274 272 270 268 266 266 266 267 266 265 264 262 261 259 257 255 253 251 251 252 253 253 251 250 249 247 247 248 247 244 243 242 239 236 235 233 232 232 231 232 234 237 241 241 239 239 240 240 239 240
261 256 254 252 250 250 252 256 260 261 261 262 263 264 266 266 266 267 269 271 272 274 275 276 277 278 279 280 280 279 279 279 278 277 276 275 273 271 268 267 267 267 267 266 265 264 263 261 260 259 257 255 253 252 252 253 254 252 250 250 251 250 249 247 244 242 240 237 236 235 233 232 233 233 235 238 241 243 242 239 238 240 242 242 242
257 254 253 252 252 253 255 259 262 263 264 265 266 266 267 266 266 268 269 271 273 274 275 276 277 278 278 279 279 279 279 279 278 277 276 274 273 271 269 269 268 267 266 265 264 264 263 263 262 260 259 257 256 253 251 252 253 252 250 249 247 245 245 244 241 239 236 234 234 234 233 233 234 235 237 239 240 240 240 240 242 243 245 245 245
255 254 254 254 256 258 261 264 267 267 268 269 268 269 269 269 269 271 272 273 274 275 276 277 277 278 278 279 279 279 280 279 278 277 275 273 272 270 269 269 268 266 264 264 265 264 264 263 261 259 259 258 256 254 250 247 250 252 249 245 242 241 240 238 235 234 234 234 233 233 232 233 234 235 238 238 237 238 239 242 244 245 246 247 247
257 258 260 262 264 267 269 270 270 271 271 271 271 271 271 272 273 274 275 276 276 276 277 278 278 279 279 280 280 281 281 280 279 278 276 274 273 271 269 268 268 266 263 263 264 263 262 261 260 259 259 257 255 253 248 243 245 249 249 243 239 238 237 234 232 232 233 232 231 231 231 233 235 236 236 235 235 236 238 240 243 245 246 247 249
264 266 268 270 272 273 274 274 274 274 273 273 273 274 274 275 276 276 276 276 276 277 278 279 279 280 280 281 282 282 282 282 282 280 279 277 274 272 269 267 266 265 263 261 261 261 260 260 260 259 257 255 252 248 243 237 237 244 247 242 236 235 236 235 233 233 233 231 230 231 232 233 233 232 230 230 233 236 237 239 242 246 249 252 253
273 274 275 276 276 277 277 277 277 276 276 277 278 278 279 279 279 279 278 277 277 277 278 278 279 280 281 282 283 284 284 284 283 281 279 277 276 275 272 266 261 260 261 259 257 257 258 258 258 256 252 249 246 241 238 233 231 236 241 238 235 236 238 238 236 233 232 231 230 231 232 230 228 225 226 230 234 237 239 241 245 249 252 254 256
276 278 279 279 280 280 280 280 280 281 281 282 283 282 282 282 281 281 280 279 278 278 278 278 279 280 282 283 284 284 284 283 283 282 282 283 283 280 275 266 254 251 253 254 252 253 254 255 254 251 246 243 240 238 237 234 228 230 233 233 234 238 240 240 238 235 233 233 233 233 232 229 226 225 227 232 236 239 243 246 248 249 251 253 255
281 282 283 284 284 284 285 286 286 286 286 285 284 283 283 282 282 281 280 279 279 279 278 278 279 280 281 282 282 283 282 282 284 287 288 288 286 282 276 266 252 245 247 250 252 253 252 249 246 241 237 234 232 230 231 229 225 228 230 229 230 234 235 235 235 233 233 235 236 234 230 227 225 225 228 232 237 241 244 246 247 249 251 253 255
286 286 287 288 289 289 289 289 289 288 288 287 285 284 283 282 281 281 280 280 280 279 279 279 278 279 279 279 280 281 281 283 286 288 288 285 283 279 275 269 257 248 247 250 253 251 247 242 238 234 231 228 225 224 224 223 223 226 228 227 227 228 229 232 233 233 233 233 233 230 227 224 222 224 228 233 238 242 243 244 246 248 250 252 254
288 289 289 290 290 290 291 291 291 291 290 289 288 287 286 284 283 281 280 280 280 280 279 279 278 278 278 278 279 280 282 284 285 285 283 281 278 276 273 269 262 254 250 250 251 249 244 240 235 232 230 228 226 224 222 221 222 224 226 227 227 227 229 232 234 234 234 232 228 224 221 220 220 224 230 235 239 242 243 244 246 247 249 251 254
291 292 293 293 293 294 293 293 293 293 293 292 291 290 288 287 286 284 283 281 280 279 279 279 279 278 278 278 278 278 280 282 283 282 281 279 275 272 270 264 258 255 251 248 247 245 241 237 234 233 231 230 229 227 225 224 224 225 227 228 227 228 230 232 233 233 233 229 224 220 218 219 223 230 237 241 242 243 244 246 247 248 251 253 255
296 296 297 296 297 297 296 296 297 296 295 294 292 291 289 288 287 286 285 284 283 280 279 279 280 280 281 281 279 278 278 280 280 279 277 274 270 266 262 253 249 252 252 248 246 246 243 238 235 234 232 231 231 231 230 229 228 228 229 230 230 230 231 232 233 233 231 228 224 222 222 226 232 239 245 247 247 247 247 248 250 252 254 255 257
299 300 299 300 300 300 300 300 300 298 297 295 293 292 292 291 290 288 286 285 286 285 283 283 283 283 285 286 286 284 281 279 280 279 276 273 268 262 256 244 237 242 247 245 244 244 242 238 237 236 235 235 235 235 235 234 233 232 232 232 233 233 233 233 232 231 230 229 228 228 230 234 240 245 249 251 252 252 251 251 252 254 255 256 258
305 304 303 304 303 303 303 303 301 300 299 296 294 294 295 295 296 295 292 289 288 288 288 291 292 290 290 290 291 293 291 287 286 285 282 277 271 264 258 245 232 234 240 243 244 244 242 240 238 237 238 240 240 239 239 239 238 236 234 233 233 233 234 233 232 230 229 227 227 230 234 240 244 247 250 253 254 254 253 252 253 254 256 258 260
312 311 311 312 310 311 312 310 308 308 304 301 301 300 298 297 298 300 302 302 300 296 293 292 295 298 299 297 292 296 301 301 298 299 295 286 278 270 261 249 237 234 236 238 241 242 243 243 243 243 244 245 244 243 243 243 242 241 238 235 234 233 234 234 232 230 228 227 229 234 239 243 247 250 252 254 256 256 255 254 254 257 259 261 261
333 330 329 328 327 328 328 326 325 325 321 319 317 312 309 307 304 303 304 304 303 302 298 292 288 289 292 293 291 294 302 307 305 304 300 287 272 264 261 255 247 243 241 240 241 242 242 243 245 247 249 250 249 248 248 247 246 244 241 239 237 235 235 234 232 229 228 229 233 238 242 246 249 250 251 254 257 258 257 255 256 259 261 261 261
354 351 350 350 348 345 342 337 336 334 331 329 325 320 317 314 310 308 307 304 302 303 300 296 292 286 281 280 282 283 284 289 291 290 290 284 264 251 251 253 253 250 248 246 247 248 248 247 247 248 250 252 253 252 251 249 247 245 243 241 240 239 238 237 234 232 232 234 238 242 246 249 251 251 252 256 258 257 255 256 257 260 262 261 260
1 359 358 356 353 350 347 343 340 337 334 331 327 324 321 317 314 312 310 307 306 305 302 301 302 298 290 284 282 280 277 276 279 281 284 287 279 256 246 246 249 252 252 250 250 250 251 252 252 252 252 252 253 252 251 250 248 246 244 243 242 242 241 238 236 235 235 238 242 246 248 250 250 251 253 256 257 256 255 257 259 260 260 259 259
358 357 355 352 349 347 345 341 338 335 332 329 326 323 321 318 315 312 310 308 307 307 306 307 306 303 299 295 289 285 282 279 280 281 280 282 284 274 259 250 249 251 253 253 254 255 255 256 256 255 253 251 250 250 250 250 249 248 246 245 244 243 242 239 238 237 238 240 244 246 248 248 248 251 254 256 256 256 256 258 260 261 259 259 260
349 348 344 342 340 338 336 334 332 329 327 325 323 321 319 317 314 312 311 310 309 308 308 307 304 301 299 297 294 290 287 281 277 276 276 275 277 276 271 264 259 257 256 255 256 257 259 259 259 258 257 255 253 251 251 250 249 248 246 245 243 242 241 240 240 239 240 242 244 244 244 245 247 251 253 254 254 255 257 259 261 260 260 260 261
338 334 331 330 329 327 327 326 323 322 322 321 319 317 316 314 312 310 308 308 307 305 303 302 301 299 297 295 294 291 287 283 278 273 270 270 271 272 271 268 264 262 260 259 258 259 260 261 261 260 260 259 258 256 253 250 247 245 243 242 241 239 238 238 238 238 239 240 241 241 242 245 249 252 253 254 254 255 257 259 259 259 259 259 260
330 327 325 324 322 321 320 318 316 316 316 314 313 312 310 309 308 307 306 306 305 303 301 299 298 297 295 294 293 290 288 286 283 278 272 268 265 265 265 265 264 263 262 262 261 261 261 261 262 262 261 260 259 257 255 251 248 245 242 241 240 239 238 237 237 237 238 239 240 242 245 248 250 252 253 253 254 254 255 256 256 256 257 258 260
328 325 324 321 319 318 316 313 312 311 309 307 307 306 305 305 304 303 303 302 301 301 300 298 297 295 294 293 292 290 289 287 285 283 279 274 268 264 262 260 259 260 260 261 262 261 261 260 261 262 262 261 259 257 255 253 250 247 244 242 241 240 240 239 239 239 240 240 241 244 246 248 249 250 250 251 252 252 253 253 254 255 256 258 260
322 320 318 316 314 313 311 309 308 306 305 304 304 303 302 301 301 299 299 298 297 296 296 295 294 293 292 291 289 288 287 286 284 283 281 278 274 270 266 262 259 257 256 257 259 260 260 261 260 260 259 258 256 254 252 251 249 247 245 244 244 244 243 244 243 243 242 243 244 245 246 246 247 247 247 248 249 249 250 251 252 254 256 258 259
318 316 314 312 311 309 308 306 305 304 303 302 300 299 298 298 297 297 296 295 294 294 293 292 292 292 291 291 290 288 285 284 283 281 280 278 276 272 269 265 262 259 257 256 256 256 257 258 259 258 258 257 256 255 254 253 252 251 251 250 251 252 252 252 251 248 246 245 245 245 244 244 244 244 245 246 247 247 249 251 252 253 254 255 257
313 312 310 309 307 306 305 304 302 301 301 300 299 298 297 296 295 295 294 293 293 293 292 292 292 292 291 291 291 290 288 287 285 283 282 280 278 276 274 270 266 263 261 259 257 256 255 256 257 257 258 259 259 258 258 257 256 256 256 256 257 258 258 255 251 247 244 242 241 241 240 241 241 242 243 244 244 246 247 248 249 250 251 253 256
309 308 306 305 305 305 304 303 302 301 301 300 299 298 297 296 295 294 293 293 293 292 292 292 292 292 292 292 291 291 291 290 288 287 286 284 283 281 279 276 273 270 267 263 261 259 258 257 257 257 258 259 259 259 259 259 258 257 257 257 257 257 255 251 247 243 240 239 238 238 238 239 239 240 241 241 242 243 244 244 246 247 249 252 254
306 306 305 305 306 305 305 305 304 303 302 301 300 299 298 298 297 297 296 295 294 293 293 293 292 292 292 292 292 292 291 290 289 289 288 287 286 283 281 280 277 275 272 268 265 263 261 259 259 258 257 257 257 257 257 257 257 256 256 255 254 253 251 247 244 241 238 237 237 237 237 238 238 238 239 239 239 241 241 242 244 246 247 250 252
307 307 307 307 307 306 306 306 304 304 304 303 302 301 301 300 299 298 298 297 296 295 295 294 293 293 293 292 292 292 291 290 289 289 287 287 286 284 282 280 278 277 276 273 270 267 264 261 259 258 256 255 255 255 255 254 254 253 253 252 250 249 247 244 242 239 238 238 237 236 236 236 235 236 236 237 237 239 240 240 242 244 245 248 251
308 307 307 306 305 305 305 304 303 304 304 302 301 301 300 299 298 298 297 296 295 295 295 294 293 292 292 292 291 291 290 289 289 288 287 287 286 284 283 281 279 277 276 274 272 270 267 263 261 258 256 255 254 253 252 251 250 249 248 247 246 245 244 242 240 239 238 238 237 235 235 235 235 234 235 236 236 238 239 240 241 244 245 248 251
306 306 305 305 304 303 303 302 301 301 300 299 299 298 297 297 298 297 297 297 297 296 296 295 294 293 292 292 291 290 290 289 288 288 287 287 286 285 284 283 281 279 277 274 272 270 267 264 262 259 256 254 253 251 250 249 247 246 245 244 243 242 241 240 239 239 238 237 236 235 235 235 235 235 236 236 237 238 239 240 241 243 245 247 250